Regional Weather Roundup
Issued by NWS Burlington, VT

Home | Current Version | Previous Version | Text Only | Print | Product List | Glossary On
Versions: 1 2 3 4 5 6 7 8 9 10 11 12 13 14 15 16 17 18 19 20 21 22 23 24 25 26 27 28 29 30 31 32 33 34 35 36 37 38 39 40 41 42 43 44 45 46 47 48 49 50
000
ASUS41 KBTV 280430
RWRBTV
VERMONT REGIONAL WEATHER ROUNDUP
NATIONAL WEATHER SERVICE BURLINGTON VT
1100 PM EST TUE JAN 27 2015

NOTE: "FAIR" INDICATES FEW OR NO CLOUDS BELOW 12,000 FEET WITH NO
SIGNIFICANT WEATHER AND/OR OBSTRUCTIONS TO VISIBILITY.

* THESE REPORTS ARE NOT UNDER NWS QUALITY CONTROL AND/OR DO NOT
  REPORT WEATHER SUCH AS PRECIPITATION AND FOG.

VTZ001>019-280500-
_____VERMONT_____


CITY           SKY/WX    TMP DP  RH WIND       PRES   REMARKS
BURLINGTON     CLOUDY    10   0  63 N20       29.94R WCI  -9
MONTPELIER     LGT SNOW   6   0  76 NW8       29.82S
MORRISVILLE    LGT SNOW   7   0  73 NW15G24   29.87S WCI -10
ST. JOHNSBURY*   N/A      9   3  77 MISG      29.80R
MIDDLEBURY*    LGT SNOW   9   4  80 N9        29.88R
RUTLAND*       CLOUDY   N/A N/A N/A NW12G24   29.80S
SPRINGFIELD    FLURRIES  11  -1  58 N13G22    29.78R WCI  -4
HIGHGATE*      FAIR       6  -3  65 N12G18    29.98S WCI  -9
NEWPORT*       LGT SNOW   6   1  78 NW14      29.84S WCI -11
BENNINGTON     CLOUDY     9   2  73 N15G25    29.80R WCI  -8
SUTTON*          N/A      5 N/A N/A MISG        N/A
GALLUP MILLS*    N/A      5 N/A N/A MISG        N/A
UNION VILLAGE*   N/A     12 N/A N/A MISG        N/A
MT. MANSFIELD*   N/A     -2 N/A N/A CALM        N/A

_____LAKE CHAMPLAIN_____


CITY           SKY/WX    TMP DP  RH WIND       PRES   REMARKS
BURTON ISLAND*   N/A     10   3  72 N6          N/A
COLCHESTER RF*   N/A     14   7  73 N28         N/A  WCI  -6
DIAMOND ISL*     N/A     14   5  67 NW21        N/A  WCI  -4

$$

NYZ007-026>031-035-052-083-280500-
_____NORTHERN NEW YORK_____


CITY           SKY/WX    TMP DP  RH WIND       PRES   REMARKS
PLATTSBURGH    LGT SNOW  10   5  80 N18       29.97S WCI  -8
SARANAC LAKE   CLOUDY     5  -2  72 NW5       29.83S
MASSENA        PTCLDY    11  -4  51 N8        30.04S
OGDENSBURG*    CLEAR     10  -2  56 N8        30.03S
POTSDAM*       CLEAR      9   0  66 CALM      30.01S
STARK FALLS*     N/A      7 N/A N/A N6          N/A
WATERTOWN      PTCLDY    -1  -7  75 CALM      30.04S
FT DRUM        MOCLDY     4  -7  58 NW5       30.00S
ALBANY         CLOUDY    13   5  70 N9        29.88S
GLENS FALLS    CLOUDY    16   1  51 NW6       29.87S

$$
NHZ002-005-011-280500-
_____NEW HAMPSHIRE_____


CITY           SKY/WX    TMP DP  RH WIND       PRES   REMARKS
LEBANON        CLOUDY    12   1  61 N8G18     29.77R
KEENE          PTCLDY    12   1  62 N15G24    29.73R WCI  -4
MT WASHINGTON  HVY SNOW   0   0 100 NE43        N/A  VSB 1/16WCI -30
PLYMOUTH       LGT SNOW  11   7  85 W14G20    29.71S WCI  -5
WHITEFIELD     LGT SNOW   7   2  80 NW6       29.75R

$$

_____REGIONAL QUEBEC LOCATIONS_____


CITY           SKY/WX    TMP DP  RH WIND       PRES   REMARKS
MONTREAL       LGT SNOW   9  -2  61 N16       30.03R WCI  -9
QUEBEC CITY    SNOWSHWR   9   5  85 VRB2      29.96F
SHERBROOKE     LGT SNOW   7   1  78 N7        29.85R

_____REGIONAL ONTARIO LOCATIONS_____


CITY           SKY/WX    TMP DP  RH WIND       PRES   REMARKS
OTTAWA         CLOUDY     9  -2  61 N9        30.06R

______KEY______
VSB  - VISIBILITY IN MILES
WCI  - WIND CHILL INDEX
HX   - HEAT INDEX
$$



USA.gov is the U.S. government's official web portal to all federal, state and local government web resources and services.